Date String (YYYY-MM-DD hh:mm:ss) UTC,Instrument flags,Ambient pressure (hPa),Sample flow (lpm),Bypass flow (lpm),Sample temperature (°C),Ambient temperature (°C),ASC tube jacket temperature (°C),LED temperature (°C),Box temperature (°C),Sample RH (%),Span deviation,Mass concentration (μg/m³),Mass concentration (μg/m³),Mass concentration (μg/m³)
DateTimeUTC,F1_M11,P_M11,Q1_M11,Q2_M11,T1_M11,T2_M11,T3_M11,T4_M11,T5_M11,U1_M11,ZSPAN_M11,X0_M11,X2_M11,X1_M11
2021-11-02 00:00:00,,0833.1,5.00,0.00,23.4,22.7,00.0,32.4,25.2,19.3,0000.0,0008.68,0006.03,0005.83
2021-11-02 00:01:00,,0833.0,5.00,0.00,23.4,22.6,00.0,32.4,25.2,19.4,0000.0,0008.68,0006.00,0005.79
2021-11-02 00:02:00,,0833.1,5.00,0.00,23.4,22.6,00.0,32.4,25.1,19.3,0000.0,0008.68,0005.95,0005.74
2021-11-02 00:03:00,,0833.1,5.00,0.00,23.4,22.5,00.0,32.4,25.1,19.3,0000.0,0008.92,0005.91,0005.70
2021-11-02 00:04:00,,0833.1,5.01,0.00,23.3,22.5,00.0,32.4,25.1,19.4,0000.0,0009.15,0005.84,0005.64
2021-11-02 00:05:00,,0833.0,4.99,0.00,23.3,22.5,00.0,32.4,25.1,19.5,0000.0,0009.21,0005.78,0005.58
2021-11-02 00:06:00,,0833.1,5.01,0.00,23.3,22.5,00.0,32.4,25.1,19.5,0000.0,0009.27,0005.74,0005.53
2021-11-02 00:07:00,,0833.0,5.00,0.00,23.3,22.5,00.0,32.4,25.1,19.5,0000.0,0009.29,0005.71,0005.49
2021-11-02 00:08:00,,0833.0,5.01,0.00,23.3,22.5,00.0,32.4,25.1,19.5,0000.0,0009.26,0005.66,0005.45
2021-11-02 00:09:00,,0833.0,4.98,0.00,23.3,22.5,00.0,32.4,25.1,19.4,0000.0,0009.21,0005.60,0005.39
2021-11-02 00:10:00,,0833.1,5.01,0.00,23.3,22.5,00.0,32.4,25.1,19.4,0000.0,0009.18,0005.56,0005.35
2021-11-02 00:11:00,,0833.0,4.99,0.00,23.3,22.5,00.0,32.4,25.1,19.4,0000.0,0009.14,0005.53,0005.32
2021-11-02 00:12:00,,0833.1,5.00,0.00,23.3,22.5,00.0,32.4,25.1,19.4,0000.0,0009.11,0005.49,0005.29
2021-11-02 00:13:00,,0833.0,5.01,0.00,23.3,22.5,00.0,32.4,25.1,19.5,0000.0,0009.11,0005.48,0005.27
2021-11-02 00:14:00,,0833.1,5.00,0.00,23.3,22.5,00.0,32.4,25.1,19.5,0000.0,0008.76,0005.47,0005.25
2021-11-02 00:15:00,,0833.1,5.01,0.00,23.3,22.5,00.0,32.4,25.0,19.4,0000.0,0008.43,0005.49,0005.23
2021-11-02 00:16:00,,0833.1,5.00,0.00,23.2,22.4,00.0,32.3,25.0,19.4,0000.0,0008.11,0005.48,0005.21
2021-11-02 00:17:00,,0833.1,5.00,0.00,23.2,22.3,00.0,32.3,25.0,19.5,0000.0,0008.07,0005.46,0005.19
2021-11-02 00:18:00,,0833.1,5.00,0.00,23.2,22.3,00.0,32.3,24.9,19.5,0000.0,0008.05,0005.44,0005.16
2021-11-02 00:19:00,,0833.1,5.00,0.00,23.2,22.3,00.0,32.3,24.9,19.5,0000.0,0007.96,0005.39,0005.13
2021-11-02 00:20:00,,0833.1,4.99,0.00,23.2,22.3,00.0,32.3,24.9,19.5,0000.0,0008.03,0005.38,0005.12
2021-11-02 00:21:00,,0833.1,5.01,0.00,23.2,22.3,00.0,32.3,24.9,19.6,0000.0,0008.11,0005.39,0005.10
2021-11-02 00:22:00,,0833.1,4.99,0.00,23.2,22.3,00.0,32.3,24.9,19.6,0000.0,0008.14,0005.39,0005.09
2021-11-02 00:23:00,,0833.1,5.00,0.00,23.2,22.4,00.0,32.3,25.0,19.5,0000.0,0008.58,0005.39,0005.07
2021-11-02 00:24:00,,0833.1,5.02,0.00,23.2,22.4,00.0,32.3,25.0,19.5,0000.0,0008.57,0005.37,0005.06
2021-11-02 00:25:00,,0833.2,5.00,0.00,23.1,22.4,00.0,32.3,25.0,19.5,0000.0,0008.91,0005.39,0005.06
2021-11-02 00:26:00,,0833.2,5.01,0.00,23.2,22.4,00.0,32.2,25.0,19.4,0000.0,0008.77,0005.36,0005.05
2021-11-02 00:27:00,,0833.2,5.00,0.00,23.2,22.4,00.0,32.2,25.0,19.4,0000.0,0008.69,0005.33,0005.04
2021-11-02 00:28:00,,0833.1,5.01,0.00,23.2,22.4,00.0,32.2,25.0,19.5,0000.0,0008.64,0005.31,0005.04
2021-11-02 00:29:00,,0833.2,5.00,0.00,23.2,22.4,00.0,32.2,25.0,19.6,0000.0,0008.64,0005.29,0005.03
2021-11-02 00:30:00,,0833.2,4.99,0.00,23.2,22.4,00.0,32.2,25.0,19.6,0000.0,0008.68,0005.31,0005.04
2021-11-02 00:31:00,,0833.2,5.01,0.00,23.2,22.4,00.0,32.2,25.0,19.6,0000.0,0008.93,0005.33,0005.05
2021-11-02 00:32:00,,0833.3,5.00,0.00,23.2,22.5,00.0,32.2,25.0,19.6,0000.0,0008.93,0005.32,0005.05
2021-11-02 00:33:00,,0833.3,4.98,0.00,23.2,22.5,00.0,32.2,25.0,19.6,0000.0,0009.03,0005.37,0005.07
2021-11-02 00:34:00,,0833.3,5.02,0.00,23.2,22.5,00.0,32.2,25.0,19.5,0000.0,0008.76,0005.37,0005.09
2021-11-02 00:35:00,,0833.3,5.00,0.00,23.2,22.5,00.0,32.2,25.0,19.5,0000.0,0009.05,0005.39,0005.10
2021-11-02 00:36:00,,0833.4,5.00,0.00,23.2,22.5,00.0,32.2,25.0,19.5,0000.0,0009.09,0005.40,0005.12
2021-11-02 00:37:00,,0833.4,5.01,0.00,23.2,22.5,00.0,32.2,25.0,19.6,0000.0,0009.01,0005.41,0005.14
2021-11-02 00:38:00,,0833.3,4.99,0.00,23.2,22.5,00.0,32.2,25.0,19.5,0000.0,0009.07,0005.44,0005.15
2021-11-02 00:39:00,,0833.4,5.00,0.00,23.2,22.5,00.0,32.2,25.0,19.5,0000.0,0009.24,0005.46,0005.16
2021-11-02 00:40:00,,0833.4,5.00,0.00,23.2,22.5,00.0,32.2,25.0,19.4,0000.0,0009.37,0005.49,0005.17
2021-11-02 00:41:00,,0833.4,4.99,0.00,23.2,22.5,00.0,32.2,25.0,19.4,0000.0,0009.53,0005.54,0005.18
2021-11-02 00:42:00,,0833.4,4.99,0.00,23.2,22.5,00.0,32.2,25.0,19.4,0000.0,0009.43,0005.55,0005.18
2021-11-02 00:43:00,,0833.5,5.00,0.00,23.2,22.5,00.0,32.2,25.0,19.5,0000.0,0009.41,0005.56,0005.19
2021-11-02 00:44:00,,0833.5,5.01,0.00,23.2,22.5,00.0,32.2,25.0,19.6,0000.0,0009.99,0005.53,0005.17
2021-11-02 00:45:00,,0833.6,5.00,0.00,23.2,22.5,00.0,32.2,25.0,19.5,0000.0,0009.95,0005.48,0005.15
2021-11-02 00:46:00,,0833.6,5.00,0.00,23.3,22.5,00.0,32.2,25.1,19.5,0000.0,0009.78,0005.47,0005.13
2021-11-02 00:47:00,,0833.6,4.98,0.00,23.3,22.6,00.0,32.3,25.1,19.6,0000.0,0009.55,0005.48,0005.12
2021-11-02 00:48:00,,0833.6,5.01,0.00,23.3,22.6,00.0,32.3,25.1,19.5,0000.0,0009.45,0005.45,0005.09
2021-11-02 00:49:00,,0833.6,5.00,0.00,23.3,22.6,00.0,32.3,25.1,19.5,0000.0,0009.52,0005.44,0005.07
2021-11-02 00:50:00,,0833.6,5.01,0.00,23.3,22.6,00.0,32.3,25.1,19.4,0000.0,0009.42,0005.43,0005.06
2021-11-02 00:51:00,,0833.6,5.00,0.00,23.3,22.6,00.0,32.3,25.1,19.4,0000.0,0009.28,0005.40,0005.04
2021-11-02 00:52:00,,0833.6,5.01,0.00,23.3,22.6,00.0,32.3,25.1,19.4,0000.0,0009.21,0005.35,0005.01
2021-11-02 00:53:00,,0833.6,5.00,0.00,23.3,22.6,00.0,32.3,25.1,19.5,0000.0,0009.22,0005.31,0004.98
2021-11-02 00:54:00,,0833.6,5.01,0.00,23.3,22.6,00.0,32.3,25.1,19.4,0000.0,0009.21,0005.30,0004.95
2021-11-02 00:55:00,,0833.6,4.99,0.00,23.3,22.6,00.0,32.3,25.1,19.5,0000.0,0008.48,0005.27,0004.92
2021-11-02 00:56:00,,0833.6,4.99,0.00,23.3,22.6,00.0,32.3,25.1,19.5,0000.0,0008.74,0005.24,0004.88
2021-11-02 00:57:00,,0833.6,5.01,0.00,23.3,22.6,00.0,32.3,25.1,19.5,0000.0,0008.86,0005.19,0004.84
2021-11-02 00:58:00,,0833.6,5.00,0.00,23.3,22.6,00.0,32.3,25.1,19.5,0000.0,0008.63,0005.12,0004.80
2021-11-02 00:59:00,,0833.6,5.01,0.00,23.3,22.6,00.0,32.3,25.1,19.6,0000.0,0008.67,0005.14,0004.80
